Location: *
(49.8044°N, 4.0558°E)
Time: 08:48:00
(UTC+00:00)

Cosmos 1408 Rocket - Pass Details

Date: 09 April 2020
Orbit: 600 x 632 km, 82.6° (Epoch: 25 May)

Event Time Altitude Azimuth Distance (km) Brightness Sun altitude
Rises 21:25:11 0° 351° (N) 2,933 8.0 -24.7°
Reaches altitude 10° 21:27:26 10° 353° (N) 2,017 6.9 -24.9°
Enters shadow 21:31:24 66° 24° (NNE) 686 3.7 -25.3°
